Find Starlink 32642

NORAD ID: 62211 Int'l Des: 2024-229 Owner: SPXS Country: US Constellation: starlink operational
LEOCIRCULAR

現在のビュー

3D地球を読み込み中...

About Starlink 32642

Starlink 32642 (NORAD 62211) is a starlink constellation satellite (v2 mini) launched Dec 4, 2024 by SPXS of US. It operates in LEO, CIRCULAR orbit with a mass of 730.00 kg.

次回通過

Passes for default location (London). Set your location on the main map for personalized predictions.

高度履歴

Loading altitude history...

軌道要素

1 62211U 24229V 26263.34278520 .00004835 00000-0 18510-3 0 9999
2 62211 43.0004 251.1911 0001201 281.1658 78.9058 15.27582699100338
Epoch: Sep 20, 2026 • Age: 17 hours

現在のステータス

高度 482.1 km
遠地点 / 近地点 N/A
速度 7.63 km/s
衛星直下点 14.10°N, 120.99°W
打ち上げ日 Dec 4, 2024
運用期間 1.7 years
タイプ internet

技術仕様

分類 Payload
質量 730.00 kg
乾燥質量 700.00 kg
長さ 0.30 m
スパン 29.00 m
形状 ? Box + pan
製造者 SPXS
バスタイプ Starlink V2M
フェーズステータス In Orbit
所有者/国 SPXS/US

Most Searched